DECAYED

STARLINK-1955, 47556 (Decayed)

Orbit data source: Space-Track

STARLINK-1955, 47556 was a payload satellite owned by SpaceX/Seattle (US) in LEO that was launched on Thu, 04 Feb 2021 UTC via an FALCON 9 launch vehicle from the Air Force Eastern Test Range (AFETR). Payload-class satellites include a variety of spacecraft equipped with specific instruments for various scientific and technological missions. These include communications satellites like Starlink; space stations such as the ISS; scientific satellites like the Hubble; Earth observation satellites from companies like Planet Labs, Umbra, and HawkEye 360; GPS; miniature CubeSats for education and research; and military/defense satellites.

Not visible in the next 10 days
Identifier
47556, 2021-009J
Orbit
Decayed
Country
Flag of USUS
Related business
Manufacturer
SpaceX/Seattle
Mission
Decayed Commercial Communications
Bus & Motor
STARLINK, Unknown motor
Mass
260 kg wet, ~248 kg dry
Launch date (UTC)
2021-02-04 (5 years ago)
Launch vehicle
FALCON 9
Launch site
Air Force Eastern Test Range (AFETR)
Object type
Payload
Rocket body
Debris
Shape & HBR
Box + 1 Pan, 10.1 m
Radar Cross Section
13.562 m², Large (>1 m²)

Expand to show TLE details & history
Last TLE update: 3 months ago

TLE from 3 months ago
0 STARLINK-1955
1 47556U 21009J   26080.92788911  .16102296  12601-4  21540-3 0  9996
2 47556  53.0157 260.7044 0005667 263.1051  96.9354 16.48942211283563
Epoch: 2026-03-21T22:16Z
TLE epoch observation values (Epoch: 2026-03-21T22:16:09.619Z)
Latitude
-0.00003°
Longitude
107.22273°
Altitude
143.5 km
Speed
7.821 km/s
True Right ascension
17h 22m 49s
True Declination
0° 00' 00"
Sunlit
Object was in daylight at epoch
Visualization orbit readout
Latitude
Unknown
Longitude
Unknown
Altitude
Unknown
Speed
Unknown
Apparent Right ascension
Unknown
Apparent Declination
Unknown
Sunlit
N/A
Visualization observer readout
Local Sidereal Time
21:35:48
Azimuth
Unknown
Elevation
Unknown
Doppler factor
Unknown
Orbital elements
Apogee altitude
146.111 km
Perigee altitude
138.721 km
Semi-major axis
6,520.553 km
Eccentricity
0.00057
Inclination
53.0157°
RAAN
260.7044°
Arg. of periapsis
263.1051°
True anomaly
96.99986°
Mean anomaly
96.9354°
Eccentric anomaly
96.96763°
Mean motion
4.12208 °/min
Orbital period
87.33 mins
BSTAR
0.0002154
Loading maneuver chart data...
Computing Atmospheric mass density...

Documentation

Showing up to 5 results
|